User: anonymous   Login
Location: NJAA Observatory
(40.6819°N, 74.8979°W)
Time: 08:03:12
(UTC-04:00)
Language:

Cosmos 1461 - Orbit

View from above orbital plane
View from above orbital plane
View from above satellite
View from above satellite

Ground track
Ground track

The orbit data is extracted from the following two-line orbital elements,

1 14064U 83044A   15148.19629731  .00002120  00000-0  20160-3 0  9998
2 14064 065.0031 085.4629 0114709 333.6930 025.8385 14.91450029611256
Epoch (UTC): 28 May 2015 04:42:40
Eccentricity: 0.0114709
inclination: 65.0031°
perigee height: 513 km
apogee height: 673 km
right ascension of ascending node: 85.4629°
argument of perigee: 333.6930°
revolutions per day: 14.91450029
mean anomaly at epoch: 25.8385°
orbit number at epoch: 61125

The dashed part of the orbit path shows where the satellite is in the earth's shadow,  

DLR